FREGAT DEB, 45999

Orbit data source: Space-Track

FREGAT DEB, 45999 is space debris in LEO originally from a launch on Mon, 18 Jul 2011 UTC launched from the Tyuratam Missile And Space Complex (TTMTR). Debris objects in space refer to the collection of defunct objects orbiting the Earth. Examples of debris include non-operational satellites, rocket bodies, and fragments generated from explosions, collisions, or faulty payload assembly.

Loading next visibility...
Identifier
45999, 2011-037HA
Orbit
LEO
Last TLE update
2 weeks ago
Origin
Manufacturer
Lavochkin
Mission
Spacecraft
Bus & Motor
Unknown
Mass
Unknown
Launch date (UTC)
2011-07-18 (14 years ago)
Launch vehicle
Unknown
Launch site
Tyuratam Missile And Space Complex (TTMTR)
Object type
Payload
Rocket body
Debris
Shape & HBR
Unknown
Radar Cross Section
Small (<0.1 m²)

Expand to show TLE details & history

TLE from 2 weeks ago
0 FREGAT DEB
1 45999U 11037HA  25165.87084987  .00000469  00000-0  13329-2 0  9997
2 45999  51.4662 345.1676 2136545 247.5040  88.6575 10.06127101179186
Epoch: 2025-06-14T20:54Z
TLE epoch observation values (Epoch: 2025-06-14T20:54:01.428Z)
Latitude
-0.00007°
Longitude
128.25751°
Altitude
3,044.958 km
Speed
6.375 km/s
True Right ascension
23h 00m 40s
True Declination
0° 00' 00"
Sunlit
Object was in daylight at epoch
Visualization orbit readout
Latitude
-40.44698°
Longitude
-43.86272°
Altitude
1,036.94 km
Speed
7.978 km/s
Apparent Right ascension
08h 41m 57s
Apparent Declination
-50° 47' 40"
Sunlit
Object is in daylight
Visualization observer readout
Local Sidereal Time
17:16:54
Azimuth
235.37° WSW
Elevation
-53.186°
Doppler factor
1
Orbital elements
Apogee altitude
4,622.448 km
Perigee altitude
749.312 km
Semi-major axis
9,064.017 km
Eccentricity
0.21365
Inclination
51.4662°
RAAN
345.1676°
Arg. of periapsis
247.504°
True anomaly
Unknown
Mean anomaly
88.6575°
Eccentric anomaly
Unknown
Mean motion
2.51514 °/min
Orbital period
143.13 mins
BSTAR
0.0013329
Loading maneuver chart data...
Loading SW <> Apogee altitude chart data...
Loading historical data...
Loading historical data...
Loading historical data...
Loading historical data...
Loading historical data...
Loading historical data...
Loading historical data...

FREGAT DEB Visibility forecast

Observer location: undefined°, undefined°

Span
Click to sort rows by Start time (UTC) header in descending order
Start Az.
Max El. time (UTC)
Max El. Az.
Max El.
End time (UTC)
End Az.
31 mins2025-07-02 08:36:18.822Z159.84° S2025-07-02 08:49:18.822Z104.374° ESE26.502°2025-07-02 09:07:18.822Z57.658° ENE
44 mins2025-07-02 11:02:18.822Z219.726° SW2025-07-02 11:18:18.822Z142.881° SSE44.708°2025-07-02 11:46:18.822Z54.342° ENE
49 mins2025-07-02 13:35:18.822Z266.934° W2025-07-02 13:56:18.822Z345.237° N42.317°2025-07-02 14:24:18.822Z71.281° E
49 mins2025-07-02 16:12:18.822Z296.718° NW2025-07-02 16:38:18.822Z20.121° NNE43.355°2025-07-02 17:01:18.822Z106.387° ESE
43 mins2025-07-02 18:49:18.822Z306.55° NW2025-07-02 19:15:18.822Z227.824° WSW42.869°2025-07-02 19:32:18.822Z154.298° SSE
25 mins2025-07-02 21:29:18.822Z294.858° NW2025-07-02 21:43:18.822Z258.829° W19.386°2025-07-02 21:54:18.822Z219.791° SW
|